Temperature
17 17 18 18 15 13 15 16 18 21 21 22 22 22 19 19 20 20 19 19 19 20 20 19 18 18 17 17 17 17 17 16 16 16 16 16 16 15 15 15 15 15 15 15 15 15 15 15 15
17 17 17 17 13 14 15 16 19 20 22 23 22 22 20 19 19 19 19 19 19 20 20 19 18 18 18 17 17 17 17 17 17 17 17 16 16 16 15 15 15 15 15 16 16 15 15 15 15
17 17 17 13 13 14 17 18 18 20 22 23 22 21 20 19 19 19 19 19 19 19 19 19 18 18 18 18 17 17 17 18 18 17 17 17 16 16 15 15 15 15 15 16 16 16 15 15 15
16 16 16 13 14 15 17 18 19 20 22 23 22 19 19 19 20 20 19 19 19 19 19 18 18 18 18 17 17 17 18 18 18 18 17 17 16 16 16 15 15 15 16 16 16 15 15 15 15
16 16 13 13 14 15 17 19 20 20 21 22 21 18 18 18 19 19 18 18 18 18 18 17 17 17 17 18 18 18 18 18 18 18 17 17 17 16 16 16 16 16 16 16 16 16 15 15 15
15 14 12 13 14 16 17 19 20 20 21 21 20 17 17 18 18 18 18 18 18 18 17 17 17 17 17 18 18 18 18 18 18 18 18 17 17 17 16 16 16 16 16 16 16 16 15 15 15
14 12 12 13 14 15 17 20 20 20 20 21 20 17 17 17 17 17 17 17 17 17 17 17 17 17 17 17 18 18 18 18 18 18 18 18 18 17 17 16 16 16 16 16 16 16 15 15 15
14 12 13 13 14 15 17 19 20 21 21 21 20 18 17 17 17 17 17 17 17 17 17 17 17 17 17 17 18 18 18 18 18 18 18 18 18 18 17 17 17 16 16 16 16 16 15 15 15
14 12 12 13 14 15 17 18 19 20 21 20 20 19 18 18 17 17 17 16 16 16 17 17 17 17 17 17 17 18 18 18 18 18 18 18 18 18 17 17 17 17 16 16 16 16 15 15 15
12 11 13 14 15 15 16 17 18 19 19 18 18 18 18 18 17 17 17 17 17 16 16 17 17 17 17 17 17 17 18 18 18 18 18 18 18 18 18 17 17 17 16 16 16 16 15 15 15
12 12 13 14 15 15 15 16 17 18 17 18 19 18 18 18 18 17 17 17 17 17 16 16 16 16 16 17 17 17 17 17 17 18 18 18 18 18 18 17 17 17 17 16 16 16 16 15 15
11 12 14 14 14 14 14 15 16 17 18 19 20 19 19 18 18 18 17 17 16 16 16 16 16 16 16 16 16 16 17 17 17 17 17 17 17 17 17 17 17 17 16 16 16 16 16 15 15
11 12 14 14 14 14 15 15 16 16 17 18 19 18 18 18 18 18 17 17 16 16 16 16 16 16 16 16 16 16 16 16 16 16 16 17 17 17 17 17 16 16 16 16 16 16 15 15 15
12 13 14 14 14 14 14 14 15 16 17 18 18 18 17 17 17 17 17 17 17 16 16 16 16 16 16 16 16 16 16 16 16 16 16 16 16 16 16 16 16 16 15 15 15 15 15 15 15
13 12 12 13 14 14 14 14 14 16 17 17 18 18 18 17 17 17 17 17 17 16 16 16 16 16 16 15 15 15 16 15 15 16 15 15 15 15 15 15 15 15 15 14 14 14 14 14 14
11 11 11 13 13 14 14 13 14 16 16 17 17 18 18 18 18 17 17 17 17 16 16 16 16 16 16 15 15 15 15 15 15 15 15 15 15 15 15 15 15 15 14 14 14 14 13 13 13
10 9 10 12 13 14 13 13 14 16 16 17 17 17 17 17 17 17 17 17 17 17 17 16 16 16 16 16 15 15 15 15 15 15 15 15 15 15 15 15 15 14 14 14 13 13 13 13 13
9 9 10 11 12 13 13 12 14 16 16 16 17 17 17 17 17 17 17 17 17 17 17 16 16 16 16 15 15 15 15 15 15 15 15 15 15 15 15 14 14 14 13 13 13 13 13 13 12
10 10 10 11 13 13 12 12 13 15 15 15 16 16 17 17 16 16 17 17 17 17 16 16 16 16 16 15 15 15 15 15 15 15 15 15 15 14 14 14 14 14 14 13 13 13 13 13 12
11 10 10 12 13 13 12 12 12 13 14 15 15 16 16 16 15 15 16 16 16 16 16 16 16 16 16 15 15 15 15 15 15 15 15 14 14 14 14 14 14 13 13 13 13 13 12 12 12
10 10 10 11 12 12 12 11 12 12 14 14 15 16 16 16 15 15 15 15 15 15 15 15 15 15 15 15 15 15 14 14 14 14 14 14 14 14 13 13 13 13 13 13 13 12 12 12 12
10 11 11 10 10 10 11 9 10 11 11 12 13 14 15 14 14 14 14 14 14 14 14 14 14 14 14 14 14 14 14 14 14 14 14 14 13 13 13 13 13 13 13 12 12 12 12 12 11
11 11 10 10 9 9 10 9 9 10 10 11 11 13 14 13 13 13 13 13 13 13 13 13 13 13 13 13 13 13 13 13 13 13 13 13 13 13 13 13 12 12 12 12 12 12 12 11 11
10 10 9 8 8 8 8 8 8 9 10 10 10 12 12 12 12 12 12 12 12 12 12 12 12 12 12 12 12 12 12 12 12 12 12 12 12 12 12 12 12 12 12 12 11 11 11 11 11
10 8 8 8 8 7 8 8 9 10 10 10 10 11 12 12 11 11 11 11 11 11 11 11 11 11 11 11 11 11 11 11 11 11 11 11 11 11 11 11 11 11 11 11 11 11 11 11 10
8 8 7 7 7 7 8 8 9 9 10 11 11 11 11 11 11 11 11 11 10 10 10 10 10 10 10 10 10 10 10 10 10 10 10 10 10 10 10 10 10 10 10 10 10 10 10 10 10
8 8 8 7 7 7 7 8 9 10 9 9 9 10 11 11 11 11 10 10 10 10 9 9 9 9 9 9 9 9 9 9 9 9 9 9 9 9 9 9 9 10 10 9 9 9 9 9 9
8 8 7 6 7 7 8 8 8 9 8 8 8 9 10 11 10 10 10 10 9 9 9 8 8 8 8 8 8 8 8 8 8 8 8 8 8 8 8 8 8 9 9 9 9 8 8 8 8
7 8 7 6 6 7 7 8 9 8 8 8 8 10 10 11 10 10 10 9 9 8 8 7 7 7 7 7 7 7 7 7 7 7 7 7 7 7 7 7 7 7 8 8 8 8 8 8 8
8 8 7 7 6 6 5 7 10 8 8 9 9 10 11 11 10 10 9 9 8 8 7 7 7 6 6 6 6 6 6 6 6 6 6 6 6 6 6 7 7 7 7 7 7 7 7 7 7
Wind_Speed
7 6 3 4 5 4 4 6 5 2 2 2 2 8 9 6 4 6 3 11 15 14 17 20 20 19 18 18 18 18 17 15 14 12 11 11 11 12 12 13 15 15 14 14 14 13 13 13 13
3 3 5 5 5 2 6 6 5 5 6 4 5 7 8 5 3 7 5 12 17 17 17 18 21 20 19 19 18 17 16 15 13 12 11 11 12 12 13 14 15 15 14 14 14 13 12 12 12
1 3 4 4 4 6 6 4 6 4 4 4 5 6 6 4 3 5 9 15 14 14 15 18 21 20 20 19 19 17 16 14 12 11 11 12 13 14 14 15 15 14 14 13 13 12 11 10 10
2 4 5 3 6 7 5 4 3 2 1 4 6 6 4 3 2 8 15 15 14 10 15 18 21 21 20 19 19 17 16 14 12 11 11 13 14 15 15 15 15 14 13 12 12 11 9 9 8
3 4 2 2 6 6 5 6 5 2 2 3 6 6 4 8 7 16 16 16 15 10 15 18 20 21 20 19 18 17 16 14 12 12 12 13 14 15 14 14 14 13 12 11 10 9 8 7 6
4 4 3 5 7 6 6 5 2 1 1 3 6 6 2 4 7 13 15 15 14 13 14 17 20 20 20 19 18 17 16 14 13 12 13 13 14 14 13 13 12 12 11 10 9 8 7 5 4
5 5 5 6 6 7 7 4 3 3 2 3 6 7 3 2 4 10 13 13 12 14 13 14 17 19 19 19 18 17 16 15 13 13 13 13 12 12 12 11 11 10 10 9 8 7 6 4 3
5 6 6 5 6 7 5 5 4 3 3 2 5 9 7 3 5 12 12 11 10 9 9 11 14 15 16 17 18 17 17 16 14 13 13 13 12 11 11 10 10 9 9 8 8 7 6 4 3
5 6 10 10 8 6 4 5 6 4 4 5 4 4 7 9 11 14 12 8 8 9 7 9 10 12 14 15 15 16 16 16 15 14 14 14 12 11 10 9 9 9 9 8 7 7 6 5 5
6 9 13 9 7 3 5 6 6 4 4 4 6 5 7 9 12 13 13 11 9 9 8 7 8 10 13 12 13 14 13 14 14 13 14 13 12 11 10 10 10 10 10 9 8 8 7 6 5
8 11 9 7 6 1 5 8 6 2 1 5 9 10 8 9 10 10 9 10 10 9 9 8 7 10 11 9 11 11 11 13 13 14 14 13 11 10 10 10 11 11 11 9 9 8 8 7 7
7 7 8 6 4 2 4 7 6 4 5 6 11 13 9 10 10 10 9 9 8 8 8 8 8 8 10 10 10 11 10 10 11 14 15 13 9 8 9 10 12 12 11 10 9 8 9 9 10
6 7 9 7 6 5 4 6 5 6 5 3 9 10 10 10 8 8 8 7 7 8 8 8 8 7 9 9 8 9 10 11 13 14 15 15 10 7 9 10 12 13 13 11 10 10 9 9 10
6 5 7 8 8 8 7 7 4 6 5 5 10 10 9 9 9 7 7 7 7 7 7 7 7 7 8 6 6 7 11 12 13 14 16 18 15 11 10 9 11 12 14 14 13 11 9 8 9
6 5 3 6 9 8 8 9 10 9 4 4 8 9 8 7 8 8 8 8 8 7 6 6 7 7 7 6 7 7 9 11 11 13 16 18 17 15 12 8 8 12 15 15 12 11 9 7 6
7 6 5 6 9 9 11 12 12 8 6 6 6 6 5 4 5 6 7 6 6 6 5 5 5 6 6 6 6 6 8 9 9 11 13 16 17 17 13 8 8 13 14 12 7 7 7 7 6
6 8 8 6 8 7 9 8 8 5 6 8 7 6 5 4 2 3 4 5 5 5 4 4 3 4 5 5 5 6 6 7 8 9 10 12 14 15 13 9 9 12 10 8 7 8 6 7 7
13 11 10 9 8 8 9 7 6 4 4 8 7 6 5 5 4 3 3 5 5 5 4 3 2 0 2 3 2 2 3 4 6 7 9 11 12 12 11 8 9 10 6 8 7 8 7 6 7
9 8 9 6 6 8 9 8 8 6 4 7 7 7 6 5 3 3 4 5 6 6 6 5 4 2 1 1 1 2 4 4 4 5 8 9 10 11 10 6 6 6 8 9 9 8 8 8 4
8 7 7 3 3 7 7 9 8 8 7 8 8 9 8 6 5 4 5 6 7 6 6 6 5 4 3 1 1 1 2 3 4 3 5 7 8 9 8 7 7 7 7 8 9 8 6 5 5
6 9 9 6 2 2 3 5 9 9 6 6 7 7 8 10 9 7 6 6 6 6 5 5 5 4 4 2 1 1 1 2 2 2 3 5 7 8 8 8 6 7 8 8 9 9 9 8 7
5 6 8 8 7 3 6 5 8 9 9 10 9 7 8 9 8 8 7 6 6 4 4 5 5 5 5 4 3 2 1 1 2 3 3 5 6 6 7 7 7 7 7 8 9 9 8 9 8
4 3 7 7 6 3 3 4 8 5 10 14 12 10 9 9 10 9 8 7 6 5 5 5 6 6 6 6 5 3 2 1 2 3 4 4 4 5 6 6 5 5 6 7 8 8 8 8 9
5 8 8 6 4 4 7 6 8 7 10 9 10 10 10 10 9 8 7 7 6 5 5 5 6 6 6 6 6 5 4 3 4 4 4 4 4 4 6 6 4 4 5 6 7 7 8 8 9
5 8 4 2 3 7 5 6 10 9 9 11 12 12 10 10 10 9 8 7 6 6 5 5 5 5 6 6 6 5 4 4 3 3 4 4 4 4 7 6 5 4 4 5 5 5 6 6 7
4 7 7 7 7 5 4 9 9 7 7 7 10 12 11 10 9 9 8 7 6 6 5 5 5 5 5 5 5 5 5 4 3 4 4 4 4 4 6 6 6 6 6 5 5 4 4 4 5
6 3 5 5 3 2 6 7 7 2 2 7 11 12 11 10 9 8 8 7 6 6 4 4 5 5 5 5 5 6 6 6 5 5 5 4 5 5 7 7 7 7 7 6 5 4 4 4 3
2 5 5 5 6 5 6 6 6 6 7 9 12 12 10 9 8 8 7 7 6 5 5 5 5 5 4 5 5 5 6 6 6 6 7 7 7 7 7 8 8 8 8 8 6 5 5 5 5
4 4 4 5 4 5 5 7 6 10 11 12 11 10 10 10 9 8 7 6 6 5 5 5 5 5 5 5 5 6 6 6 7 7 7 7 7 8 8 8 8 9 9 9 8 8 8 7 7
5 6 7 6 5 5 4 7 6 7 9 10 9 9 9 9 8 8 8 7 6 6 5 5 4 5 4 5 6 6 6 6 7 7 7 7 7 7 8 8 9 10 10 10 10 9 9 9 9
Wind_Direction
333 352 68 57 60 61 238 245 238 237 175 210 129 104 101 90 129 151 116 140 137 142 150 150 147 145 141 136 132 128 123 119 114 111 111 113 118 121 117 112 110 105 101 99 97 96 94 91 90
336 29 61 63 102 175 252 250 237 222 200 174 116 97 84 71 86 105 114 141 140 143 148 150 146 144 141 137 133 129 125 120 116 115 116 119 125 126 122 117 113 109 106 104 103 100 98 95 92
318 70 83 88 150 194 228 248 217 235 234 142 79 68 92 112 128 117 142 139 133 136 145 151 147 145 143 139 136 132 128 125 121 120 121 124 127 127 125 119 117 115 113 112 110 107 103 98 93
83 63 64 106 219 227 232 276 252 214 3 68 89 59 48 357 148 126 136 135 131 129 142 151 148 147 145 142 140 137 134 131 128 127 129 128 126 126 124 123 122 122 122 120 117 114 109 101 94
74 92 98 218 241 253 258 270 258 191 127 73 92 86 29 349 89 124 135 136 135 133 143 152 150 149 148 146 144 141 139 138 136 135 135 132 129 129 129 130 131 132 131 129 126 123 119 109 98
90 90 141 217 247 272 281 272 276 164 115 92 97 95 48 6 97 133 139 140 140 143 148 153 153 151 151 150 148 147 145 145 144 143 141 137 135 136 137 138 140 142 142 141 139 137 136 129 113
140 140 183 208 249 272 274 280 216 158 110 107 117 104 111 46 86 131 137 138 140 145 147 150 153 154 154 154 154 153 152 152 152 150 148 144 142 145 147 149 152 154 155 154 154 154 158 162 159
146 146 187 209 231 257 293 313 284 174 147 86 103 130 159 161 105 116 125 129 135 141 146 148 152 155 157 159 160 159 159 158 157 155 153 152 153 155 159 161 164 167 169 169 171 174 180 192 208
120 156 202 203 213 243 320 334 328 323 100 69 67 130 145 130 114 116 120 122 135 147 152 151 153 156 158 161 166 164 165 165 162 161 161 161 163 167 172 176 178 180 182 185 189 193 200 213 233
145 189 208 206 206 246 316 313 312 348 49 68 62 72 108 115 121 130 141 147 154 162 169 167 164 164 163 168 168 168 169 171 169 170 170 173 177 182 186 191 193 193 194 198 203 207 211 221 244
166 195 201 212 219 268 310 303 309 317 270 181 158 155 142 129 132 141 151 156 162 164 169 176 176 174 172 171 168 172 173 176 180 183 185 187 189 196 201 200 203 202 202 206 214 216 217 225 240
172 200 187 204 202 202 263 289 305 288 243 223 172 157 151 151 158 165 167 167 164 164 169 172 172 175 181 177 176 179 179 184 190 196 197 194 195 203 205 204 205 204 204 207 214 219 226 235 243
182 185 192 192 181 204 235 267 277 275 263 134 130 142 157 166 173 180 178 175 172 178 181 179 173 170 176 177 183 186 190 195 201 203 206 203 200 202 203 207 208 209 208 209 214 222 229 236 242
183 161 174 186 182 194 199 242 240 243 252 139 134 146 161 172 175 172 179 186 190 195 197 188 182 175 171 175 183 189 196 203 205 208 211 209 208 204 201 204 209 213 214 215 216 220 226 231 233
147 133 147 178 180 184 178 220 220 222 232 168 153 157 163 169 166 171 178 182 190 196 203 201 196 184 181 188 192 192 194 201 206 212 216 214 213 208 205 206 209 214 216 217 218 224 229 234 234
136 138 168 198 177 172 172 215 222 225 206 202 190 181 177 183 177 177 176 171 175 178 189 205 204 193 198 202 206 206 203 203 210 215 218 218 217 214 210 211 214 213 212 213 212 215 221 230 230
147 169 177 194 190 161 175 215 232 223 205 211 207 199 193 203 209 184 166 154 145 154 161 175 186 196 210 216 218 221 220 219 222 221 222 224 222 219 217 221 223 214 211 212 215 215 211 222 228
173 172 176 186 192 165 184 213 247 251 220 220 215 204 196 194 201 175 132 117 106 100 100 103 110 184 223 220 226 238 240 241 237 232 231 230 228 226 222 227 228 217 216 221 218 218 216 218 221
142 148 168 190 187 170 197 216 238 255 247 232 216 198 189 182 164 113 93 94 88 69 66 61 62 29 48 120 201 224 240 248 249 245 244 240 238 235 228 232 230 222 226 228 224 221 223 228 208
137 151 172 192 188 177 205 233 243 248 234 220 209 201 185 158 137 107 85 73 75 71 62 56 49 43 46 79 194 215 244 254 251 263 264 258 254 249 240 234 238 231 232 235 230 221 225 225 189
166 176 179 173 124 110 149 262 247 251 239 230 216 199 180 168 158 139 110 94 81 68 54 48 36 37 34 26 45 26 24 351 335 303 285 277 269 263 253 246 242 241 232 236 233 223 222 230 215
181 195 171 153 139 197 174 236 262 233 236 231 217 194 178 164 151 142 130 114 101 83 59 48 40 40 30 32 51 67 96 266 276 289 295 305 301 287 275 263 255 251 246 243 242 234 229 229 231
180 151 139 144 138 133 181 202 274 236 227 229 216 197 181 166 154 147 141 129 111 87 65 49 48 41 32 37 45 56 40 311 307 322 326 326 324 322 312 289 273 264 259 256 252 247 238 232 234
122 86 69 63 90 213 208 191 266 228 217 217 203 188 174 160 148 139 129 118 102 80 64 54 54 41 31 36 40 48 39 13 5 355 347 339 336 340 346 333 310 285 276 271 265 256 250 244 242
118 115 103 123 204 240 202 203 247 245 229 209 188 176 167 156 148 143 135 124 112 91 72 61 63 45 31 36 37 34 32 31 23 358 352 352 353 351 348 350 342 326 309 297 285 275 266 256 251
161 142 157 177 200 251 210 225 250 270 260 195 164 158 156 156 154 151 146 136 124 108 89 76 72 55 37 39 38 34 30 31 26 18 17 14 3 356 354 356 357 354 347 335 318 300 289 281 267
145 159 156 136 162 218 247 267 297 332 103 140 147 153 160 161 159 153 145 138 133 120 105 98 87 65 42 39 47 41 33 36 31 26 26 23 12 8 7 7 8 4 3 358 353 351 342 333 320
129 143 118 136 166 228 263 251 239 223 197 172 164 164 164 160 156 152 148 144 137 127 111 96 90 78 56 49 48 56 40 37 36 36 33 29 21 18 17 18 17 16 14 12 17 16 11 25 20
165 169 163 161 182 188 244 263 227 214 198 182 176 169 166 167 165 161 156 148 137 124 114 104 92 80 66 61 59 56 44 41 42 42 36 31 27 25 28 25 26 26 23 21 28 32 30 38 37
196 190 167 173 213 196 208 268 287 244 194 172 171 173 173 169 165 161 156 148 140 133 123 113 100 88 80 75 68 60 51 48 48 43 37 36 35 32 33 34 36 34 31 30 34 37 39 43 44
Height
1535 1536 1537 1538 1542 1550 1549 1539 1529 1525 1523 1521 1522 1521 1524 1528 1531 1537 1534 1535 1538 1540 1542 1545 1548 1550 1552 1553 1554 1555 1556 1557 1557 1557 1557 1557 1557 1558 1559 1560 1560 1560 1560 1559 1558 1558 1558 1558 1559
1534 1535 1538 1538 1546 1555 1548 1534 1528 1523 1520 1520 1521 1522 1524 1528 1529 1531 1532 1536 1539 1541 1543 1546 1549 1550 1552 1553 1554 1556 1557 1557 1557 1558 1558 1558 1559 1560 1560 1561 1561 1562 1561 1561 1560 1560 1560 1560 1560
1532 1534 1537 1539 1547 1549 1539 1528 1524 1520 1519 1519 1521 1523 1526 1529 1530 1531 1533 1536 1539 1541 1543 1546 1549 1551 1552 1554 1555 1556 1557 1557 1558 1559 1559 1559 1560 1561 1562 1562 1563 1563 1563 1563 1562 1562 1562 1562 1562
1531 1534 1536 1542 1542 1536 1530 1524 1522 1520 1519 1518 1520 1525 1528 1531 1531 1532 1533 1536 1539 1542 1544 1546 1549 1551 1553 1554 1555 1556 1557 1558 1559 1559 1560 1561 1561 1562 1563 1564 1564 1564 1564 1564 1564 1564 1564 1564 1564
1529 1532 1538 1543 1538 1530 1526 1523 1522 1520 1518 1519 1521 1526 1530 1531 1531 1532 1534 1537 1539 1542 1544 1547 1550 1551 1553 1554 1555 1556 1557 1558 1559 1560 1561 1561 1562 1563 1564 1565 1565 1565 1566 1566 1566 1566 1566 1566 1566
1527 1530 1541 1543 1536 1528 1524 1523 1522 1520 1519 1520 1522 1527 1532 1533 1532 1533 1536 1538 1541 1543 1545 1547 1550 1552 1553 1554 1556 1557 1558 1559 1559 1560 1561 1562 1563 1564 1565 1565 1566 1566 1567 1567 1567 1567 1567 1567 1567
1525 1531 1536 1536 1534 1529 1524 1522 1521 1520 1519 1521 1522 1527 1531 1534 1534 1535 1537 1540 1542 1544 1546 1547 1549 1551 1553 1555 1556 1557 1558 1559 1560 1561 1562 1563 1563 1564 1565 1566 1566 1567 1567 1568 1568 1568 1568 1568 1568
1520 1528 1533 1533 1532 1529 1524 1522 1521 1520 1520 1521 1522 1525 1530 1533 1534 1536 1538 1540 1542 1544 1546 1547 1549 1551 1553 1554 1556 1557 1558 1559 1560 1561 1562 1563 1564 1564 1565 1566 1566 1567 1567 1568 1568 1569 1569 1569 1569
1519 1528 1530 1529 1529 1526 1524 1523 1521 1520 1519 1520 1522 1524 1527 1531 1534 1536 1539 1541 1542 1544 1546 1547 1549 1551 1552 1554 1555 1557 1558 1559 1560 1561 1562 1563 1564 1564 1565 1566 1566 1567 1567 1568 1568 1568 1569 1569 1569
1516 1523 1521 1520 1523 1524 1524 1524 1523 1522 1521 1521 1523 1525 1528 1531 1534 1536 1538 1540 1541 1543 1545 1547 1548 1550 1552 1553 1555 1556 1557 1558 1560 1561 1561 1562 1563 1564 1565 1565 1566 1566 1567 1567 1568 1568 1568 1568 1568
1512 1515 1516 1519 1521 1524 1526 1525 1524 1524 1523 1522 1522 1525 1528 1531 1534 1536 1538 1539 1541 1543 1544 1546 1548 1550 1551 1553 1554 1555 1556 1558 1559 1560 1560 1561 1562 1563 1564 1564 1565 1566 1566 1566 1567 1567 1567 1567 1567
1511 1512 1514 1518 1521 1525 1527 1527 1525 1523 1523 1522 1522 1524 1527 1530 1533 1535 1537 1539 1540 1542 1544 1545 1547 1548 1550 1551 1553 1554 1555 1556 1558 1559 1559 1560 1560 1561 1562 1563 1564 1564 1565 1565 1565 1565 1566 1566 1566
1508 1510 1513 1517 1521 1524 1527 1527 1527 1524 1522 1521 1522 1524 1527 1529 1532 1535 1537 1539 1540 1541 1543 1544 1546 1547 1548 1550 1551 1553 1554 1555 1556 1557 1558 1559 1559 1560 1560 1561 1561 1562 1562 1563 1563 1563 1563 1563 1563
1507 1509 1512 1515 1519 1522 1526 1527 1527 1525 1523 1522 1523 1524 1527 1529 1531 1533 1535 1537 1539 1541 1542 1543 1544 1546 1547 1548 1549 1551 1552 1553 1554 1555 1556 1557 1557 1557 1558 1558 1558 1559 1560 1560 1561 1561 1561 1560 1560
1506 1510 1513 1514 1516 1520 1524 1527 1525 1523 1524 1522 1522 1524 1526 1528 1530 1531 1533 1535 1537 1539 1541 1542 1543 1544 1545 1547 1548 1549 1550 1551 1551 1552 1554 1554 1555 1555 1555 1555 1555 1556 1557 1557 1557 1557 1557 1557 1557
1507 1513 1517 1513 1514 1516 1523 1525 1520 1520 1521 1521 1521 1523 1525 1527 1529 1530 1532 1534 1535 1537 1538 1540 1541 1542 1544 1545 1546 1547 1548 1548 1549 1550 1551 1551 1552 1552 1552 1552 1552 1553 1553 1553 1553 1553 1553 1553 1553
1509 1515 1516 1513 1511 1512 1518 1520 1516 1517 1518 1518 1519 1521 1523 1525 1527 1529 1530 1532 1533 1534 1536 1537 1538 1539 1541 1542 1543 1544 1545 1546 1546 1547 1548 1548 1549 1549 1549 1549 1549 1550 1550 1549 1549 1549 1549 1549 1549
1506 1510 1512 1512 1509 1510 1515 1516 1513 1513 1514 1515 1516 1518 1520 1522 1524 1526 1528 1529 1531 1532 1533 1534 1535 1536 1537 1539 1540 1540 1541 1542 1543 1543 1544 1544 1545 1545 1545 1545 1545 1545 1545 1545 1545 1545 1545 1545 1545
1499 1505 1509 1509 1506 1509 1513 1513 1511 1510 1512 1512 1513 1515 1517 1519 1521 1523 1525 1526 1528 1529 1530 1531 1532 1533 1534 1534 1535 1536 1536 1537 1538 1539 1539 1540 1540 1540 1540 1540 1540 1540 1540 1540 1540 1540 1540 1539 1540
1499 1506 1508 1507 1505 1509 1513 1513 1510 1509 1509 1510 1510 1512 1514 1516 1518 1520 1521 1523 1524 1526 1527 1528 1529 1529 1530 1530 1531 1531 1532 1532 1533 1534 1534 1534 1535 1535 1535 1534 1534 1534 1534 1534 1534 1534 1533 1533 1534
1501 1505 1508 1509 1508 1509 1513 1515 1511 1507 1506 1507 1508 1509 1510 1512 1514 1517 1518 1520 1521 1523 1524 1524 1525 1525 1525 1526 1526 1527 1527 1527 1528 1528 1528 1529 1529 1529 1529 1528 1528 1528 1528 1527 1527 1528 1527 1527 1527
1502 1500 1503 1507 1514 1519 1516 1525 1511 1506 1505 1503 1503 1505 1507 1509 1512 1514 1516 1517 1519 1520 1520 1520 1521 1521 1521 1521 1522 1522 1522 1522 1523 1523 1523 1523 1523 1523 1522 1522 1522 1521 1521 1521 1521 1521 1521 1520 1520
1498 1497 1502 1508 1514 1519 1518 1523 1513 1504 1504 1499 1499 1501 1503 1506 1509 1511 1513 1515 1516 1517 1517 1517 1517 1518 1518 1517 1517 1517 1517 1517 1517 1517 1517 1517 1517 1516 1516 1515 1515 1515 1514 1514 1514 1514 1514 1513 1513
1497 1502 1508 1513 1517 1524 1519 1523 1514 1504 1496 1493 1494 1497 1500 1503 1506 1509 1511 1512 1513 1514 1514 1514 1514 1514 1514 1514 1514 1513 1513 1513 1512 1512 1511 1511 1511 1510 1510 1509 1508 1508 1508 1507 1507 1507 1507 1507 1506
1499 1508 1519 1522 1525 1524 1515 1516 1505 1491 1487 1486 1487 1492 1496 1500 1504 1506 1508 1510 1511 1511 1512 1512 1512 1511 1511 1510 1510 1509 1509 1508 1508 1507 1506 1506 1505 1505 1504 1503 1503 1502 1501 1501 1501 1500 1500 1500 1499
1501 1505 1518 1522 1524 1523 1513 1512 1496 1486 1481 1481 1484 1489 1494 1498 1501 1504 1506 1508 1509 1509 1509 1509 1509 1508 1508 1507 1506 1506 1505 1504 1503 1503 1502 1501 1501 1500 1499 1498 1497 1497 1496 1495 1495 1494 1493 1493 1493
1501 1505 1506 1515 1517 1519 1514 1503 1492 1484 1482 1481 1484 1488 1492 1496 1499 1502 1504 1506 1506 1507 1507 1506 1506 1505 1505 1504 1503 1502 1501 1501 1500 1499 1498 1497 1496 1496 1495 1494 1493 1492 1491 1490 1489 1488 1487 1487 1487
1499 1501 1509 1516 1518 1517 1507 1501 1495 1486 1485 1484 1484 1487 1490 1495 1498 1500 1502 1504 1504 1504 1504 1504 1503 1502 1502 1501 1500 1499 1499 1498 1497 1496 1495 1494 1493 1492 1491 1490 1488 1487 1486 1485 1484 1483 1482 1481 1481
1501 1502 1504 1510 1513 1514 1509 1499 1482 1480 1479 1481 1483 1485 1489 1493 1496 1498 1500 1501 1502 1502 1501 1501 1500 1500 1499 1498 1498 1497 1496 1495 1494 1493 1492 1491 1490 1489 1487 1486 1485 1484 1482 1481 1480 1479 1478 1477 1476
1496 1497 1501 1508 1510 1512 1514 1500 1476 1476 1476 1479 1482 1485 1489 1492 1494 1497 1498 1499 1499 1499 1499 1498 1498 1497 1497 1496 1495 1494 1493 1493 1492 1491 1490 1489 1488 1486 1485 1483 1482 1481 1479 1478 1477 1475 1474 1473 1472